WA2GUG Weather Reports


Display with metric or nautical units.
time (UTC)temp
F
wind
direction
speed
MPH
gust
MPH
rain 1hr
in
rain 24hr
in
rain mn
in
humidity
%
barometer
mb
20211024224214 50 45 0.0 1.0 0.00 0.00 0.00 99 1015.0
20211024221213 52 13 0.0 1.0 0.00 0.00 0.00 99
20211024220350 52 191 0.0 1.0 0.00 0.00 0.00 99 1015.0
20211024215331 54 30 0.0 1.0 0.00 0.00 0.00 99 1015.0
20211024214759 54 45 0.0 1.0 0.00 0.00 0.00 99 5688.0
20211024213857 55 90 0.0 0.0 0.00 0.00 0.00 99 1014.0
20211024213354 55 63 0.0 0.0 0.00 0.00 0.00 99 1014.0
20211024212912 55 90 0.0 1.0 0.00 0.00 0.00 99 1014.0
20211024211428 56 90 1.0 3.0 0.00 0.00 0.00 93
20211024210842 56 81 0.0 2.0 0.00 0.00 0.00 98 1014.0
20211024210007 56 126 1.0 2.0 0.00 0.00 0.00 97
20211024204912 57 67 0.0 2.0 0.00 0.00 0.00 95 1015.0
20211024203911 59 157 0.0 2.0 0.00 0.00 0.00 91 1015.0
20211024202952 61 146 1.0 3.0 0.00 0.00 0.00 89 1015.0
20211024200842 61 129 1.0 3.0 0.00 0.00 0.00 88 1015.0
20211024195942 61 56 1.0 5.0 0.00 0.00 0.00 82
20211024194814 63 72 1.0 3.0 0.00 0.00 0.00 91 936.0
20211024193446 64 150 2.0 3.0 0.00 0.00 0.00 85 1015.0
20211024192914 64 60 1.0 4.0 0.00 0.00 0.00 86 1015.0
20211024190909 67 180 2.0 4.0 0.00 0.00 0.00 85 1015.0
20211024190004 69 157 1.0 5.0 0.00 0.00 0.00 76 2476.0
20211024184558 74 101 1.0 6.0 0.00 0.00 0.00 72
20211024182912 77 216 2.0 6.0 0.00 0.00 0.00 66 1015.0
20211024174744 74 82 2.0 5.0 0.00 0.00 0.00 72 1015.0
20211024174403 73 67 2.0 4.0 0.00 0.00 0.00 70 1015.0
20211024173825 73 67 2.0 4.0 0.00 0.00 0.00 62 1015.0
20211024172513 72 0 1.0 5.0 0.00 0.00 0.00 77 1015.0
20211024170429 73 232 2.0 4.0 0.00 0.00 0.00 78
20211024170024 74 213 2.0 4.0 0.00 0.00 0.00 73 1016.0
20211024161526 72 147 2.0 5.0 0.00 0.00 0.00 76 1016.0
20211024151802 64 108 1.0 4.0 0.00 0.00 0.00 80 1016.0
20211024150538 57 142 1.0 5.0 0.00 0.00 0.00 86 1016.0
20211024150005 55 165 1.0 3.0 0.00 0.00 0.00 94 2893.0
20211024145533 53 202 2.0 3.0 0.00 0.00 0.00 99 1016.0
20211024143912 50 142 2.0 4.0 0.00 0.00 0.00 99 1016.0
20211024143410 50 206 1.0 3.0 0.00 0.00 0.00 99 1016.0
20211024141457 47 213 1.0 3.0 0.00 0.00 0.00 99 1016.0
20211024140912 48 211 1.0 5.0 0.00 0.00 0.00 99 1016.0
20211024121847 36 90 0.0 1.0 0.00 0.00 0.00 99 1016.0
20211024120532 34 39 0.0 1.0 0.00 0.00 0.00 99 1016.0
20211024120211 33 73 0.0 0.0 0.00 0.00 0.00 97 1016.0
20211024110912 34 90 0.0 1.0 0.00 0.00 0.00 99 1015.0
20211024105913 34 94 99.0 99.0 0.00 0.00 0.00 99
20211024102912 35 67 0.0 0.0 0.00 0.00 0.00 99 1015.0
20211024101211 36 40 0.0 1.0 0.00 0.00 0.00 99 1014.0
20211024095712 35 275 0.0 99.0 0.00 0.00 0.00 99
20211024091212 36 30 0.0 1.0 0.00 0.00 0.00 99 1014.0
20211024085712 36 41 0.0 1.0 0.00 0.00 0.00 99 1014.0
20211024085130 36 348 0.0 1.0 0.00 0.00 0.00 99
20211024084212 36 45 0.0 1.0 0.00 0.00 0.00 99 1014.0
20211024082913 36 208 0.0 1.0 0.00 0.00 0.00 99 1014.0
20211024081212 37 45 0.0 1.0 0.00 0.00 0.00 99 1014.0
20211024075713 37 27 0.0 0.0 0.00 0.00 0.00 99 983.0
20211024074711 37 146 0.0 1.0 0.00 0.00 0.00 99 1014.0
20211024074213 37 112 0.0 1.0 0.00 0.00 0.00 99
20211024072131 37 67 0.0 0.0 0.00 0.00 0.00 95 1014.0
20211024071711 37 73 0.0 1.0 0.00 0.00 0.00 99 1014.0
20211024071212 37 157 0.0 1.0 0.00 0.00 0.00 96 1014.0
20211024065913 37 45 0.0 0.0 0.00 0.00 0.00 99 1014.0
20211024065712 37 67 0.0 0.0 0.00 0.00 0.00 99 1014.0
20211024064212 37 303 0.0 1.0 0.00 0.00 0.00 99 6861.0
20211024062131 38 45 0.0 1.0 0.00 0.00 0.00 99 3357.0
20211024062129 38 30 0.0 1.0 0.00 0.00 0.00 99 1013.0
20211024055712 38 75 0.0 0.0 0.00 0.00 0.00 99 1013.0
20211024055132 38 297 0.0 0.0 0.00 0.00 0.00 99 1002.0
20211024054213 38 56 0.0 1.0 0.00 0.00 0.00 93 1013.0
20211024051711 38 60 0.0 1.0 0.00 0.00 0.00 99 1013.0
20211024051213 38 61 0.0 1.0 0.00 0.00 0.00 99 1013.0
20211024042913 39 345 0.0 0.0 0.00 0.00 0.00 99
20211024042131 39 49 0.0 0.0 0.00 0.00 0.00 99 1013.0
20211024041712 40 45 0.0 0.0 0.00 0.00 0.00
20211024041211 40 0 0.0 0.0 0.00 0.00 0.00 99 1012.0
20211024035713 41 180 0.0 0.0 0.00 0.00 0.00 99 1012.0
20211024034711 42 90 0.0 0.0 0.00 0.00 0.00 99 1012.0
20211024031712 42 225 0.0 0.0 0.00 0.00 0.00 99
20211024025711 41 292 0.0 1.0 0.00 0.00 0.00 99 1929.0
20211024024712 41 45 0.0 1.0 0.00 0.00 0.00 99 1013.0
20211024024212 41 50 0.0 2.0 0.00 0.00 0.00 99 1589.0
20211024021211 42 330 0.0 0.0 0.00 0.00 0.00 99 1012.0
20211024015711 43 337 0.0 0.0 0.00 0.00 0.00 99 1012.0
20211024014213 44 270 0.0 0.0 0.00 0.00 0.00 99 1011.0
20211024011712 45 52 0.0 0.0 0.00 0.00 0.00 99 1012.0
20211024005912 46 22 0.0 1.0 0.00 0.00 0.00 99 1012.0
20211024005711 46 54 0.0 1.0 0.00 0.00 0.00 99 986.0
20211024004712 46 135 0.0 0.0 0.00 0.00 0.00 99 1012.0
20211024004212 47 105 0.0 0.0 0.00 0.00 0.00 99 1012.0
20211024002913 47 84 0.0 0.0 0.00 0.00 0.00 99 1012.0
20211024001212 48 67 0.0 0.0 0.00 0.00 0.00 99 1012.0
20211023231711 50 81 0.0 0.0 0.00 0.00 0.00 99 1012.0
20211023225711 51 39 0.0 0.0 0.00 0.00 0.00 99 1012.0